www.pogodaiklimat.ru
Время
и дата
08:53 19.07
09:53 19.07
10:53 19.07
11:19 19.07
11:53 19.07
12:53 19.07
13:53 19.07
14:53 19.07
15:53 19.07
16:53 19.07
17:53 19.07
18:53 19.07
19:53 19.07
20:53 19.07
21:53 19.07
22:53 19.07
23:53 19.07
00:53 20.07
01:53 20.07
02:53 20.07
03:53 20.07
04:53 20.07
05:53 20.07
06:53 20.07
07:53 20.07
08:53 20.07
09:53 20.07
10:53 20.07
11:53 20.07
12:53 20.07
13:53 20.07
14:53 20.07
15:53 20.07
16:53 20.07
17:53 20.07
18:53 20.07
19:53 20.07
20:53 20.07
21:53 20.07
22:53 20.07
23:53 20.07
00:53 21.07
01:53 21.07
02:53 21.07
03:53 21.07
04:53 21.07
05:53 21.07
06:53 21.07
Ветер
(напр.,м/с)
Видим. Явления Облачность Т
(С)
Тd
(С)
f
(%)
Тe
(С)
Тes
(С)
Комфортность P
(гПа)
Po
(гПа)
Тmin
(С)
Tmax
(С)
R
(мм)
R24
(мм)
S
(см)
нст 2 16 км ясно +27.8 +17.8 55 +32 +41 душно 1013.9 986.3
СЗ 2 16 км ясно +31.7 +17.8 44 +36 +49 очень
душно
1013.5 986.0 +18.9 +31.7
З 3 16 км ясно +33.9 +16.1 35 +37 +51 опасность
солнечного
удара
1013.2 985.6
ЮЗ 3 16 км ясно +34.4 +15.6 33 +37 +54 опасность
солнечного
удара
985.6
З 6 16 км ясно +36.1 +16.1 31 +38 +46 очень
душно
1012.5 985.0
З 7
{9}
16 км ясно +37.8 +10.6 19 +37 +42 очень
жарко
1012.0 984.6
З 7
{11}
16 км ясно +37.8 +13.3 23 +38 +43 очень
жарко
1011.7 984.3
З 7 16 км ясно +36.7 +12.8 24 +37 +41 очень
жарко
1011.2 984.0
З 5
{9}
16 км ясно +35.6 +12.8 25 +36 +42 очень
жарко
1011.1 983.7 +31.7 +38.3
З 4
{10}
16 км ясно +34.4 +10.6 23 +34 +38 очень
жарко
1011.0 983.7
З 5
{8}
16 км ясно +32.8 +12.8 30 +33 +35 жарко 1011.0 983.7
З 4 16 км ясно +30.0 +13.9 37 +32 +32 жарко 1011.6 984.0
нст 2 16 км ясно +28.9 +15.0 43 +31 +31 жарко 1012.1 984.6
З 3 16 км ясно +27.2 +16.1 51 +31 +31 душно 1012.4 985.0
З 2 16 км ясно +26.1 +15.0 50 +29 +29 жарко 1012.6 985.3 +25.6 +35.6
штиль 0 16 км ясно +25.6 +15.0 52 +28 +28 жарко 1012.5 985.0
штиль 0 16 км ясно +24.4 +16.1 60 +28 +28 душно 1012.1 984.6
штиль 0 16 км ясно +23.9 +16.1 62 +27 +27 жарко 1011.8 984.3
штиль 0 16 км ясно +22.8 +15.0 61 +27 +27 душно 1011.6 984.3
штиль 0 16 км ясно +22.8 +15.0 61 +27 +27 душно 1011.4 984.0
штиль 0 16 км ясно +21.7 +15.6 68 +25 +25 комфорт 1011.4 984.0 +21.7 +26.1
штиль 0 16 км ясно +21.7 +13.9 61 +25 +25 комфорт 1011.9 984.6
штиль 0 16 км ясно +22.2 +16.1 68 +26 +26 душно 1012.4 985.0
штиль 0 16 км ясно +24.4 +15.0 56 +27 +29 жарко 1012.6 985.3
штиль 0 16 км ясно +27.8 +15.0 46 +30 +36 жарко 1012.7 985.3
штиль 0 16 км ясно +32.2 +13.3 32 +33 +45 жарко 1012.5 985.3
нст 2 16 км ясно +34.4 +12.2 26 +34 +48 очень
жарко
1012.2 985.0 +21.7 +34.4
З 3 16 км ясно +36.1 +8.9 19 +34 +49 очень
жарко
1011.8 984.3
З 2 16 км ясно +38.3 +8.9 17 +37 +57 опасность
солнечного
удара
1011.2 984.0
З 6 16 км ясно +38.9 +12.2 20 +38 +47 очень
жарко
1010.5 983.3
З 6 16 км ясно +38.9 +10.6 18 +38 +45 очень
жарко
1010.0 982.7
З 8
{11}
16 км ясно +38.9 +8.9 16 +37 +40 очень
жарко
1009.5 982.3
З 8
{12}
16 км ясно +37.2 +8.9 18 +35 +38 очень
жарко
1009.1 981.7 +34.4 +40.0
З 5
{11}
16 км ясно +36.1 +11.1 22 +35 +39 очень
жарко
1008.9 981.7
З 6 16 км ясно +33.3 +13.9 31 +34 +36 очень
жарко
1009.2 982.0
З 5 16 км ясно +30.6 +12.8 34 +32 +32 жарко 1009.8 982.3
З 3 16 км ясно +27.8 +13.9 42 +30 +30 жарко 1010.4 983.0
З 2 16 км ясно +26.1 +15.0 50 +29 +29 жарко 1010.7 983.3
штиль 0 16 км ясно +26.1 +13.9 47 +28 +28 жарко 1010.8 983.7 +25.0 +37.2
З 2 16 км ясно +25.6 +13.3 46 +28 +28 жарко 1010.9 983.7
штиль 0 16 км ясно +25.6 +13.3 46 +28 +28 жарко 1010.6 983.3
З 2 16 км ясно +23.9 +14.4 55 +26 +26 жарко 1010.3 983.0
штиль 0 16 км ясно +23.3 +14.4 57 +27 +27 душно 1010.0 982.7
штиль 0 16 км ясно +22.8 +15.6 64 +27 +27 душно 1009.8 982.7
штиль 0 16 км ясно +22.2 +15.0 64 +26 +26 душно 1009.7 982.3 +22.2 +26.7
штиль 0 16 км ясно +21.7 +15.6 68 +25 +25 комфорт 1010.0 982.7
штиль 0 16 км ясно +22.8 +15.6 64 +27 +27 душно 1010.4 983.0
штиль 0 16 км ясно +23.9 +15.6 60 +27 +29 жарко 1010.8 983.3
Местоположение метеостанции Riverside Municipal Airport: широта 33.9519 долгота -117.4386 высота над уровнем моря 245 м.
В архиве по умолчанию представлена погода в Риверсайде за последние 1-2 суток. Обновление информации о фактической погоде в базе происходит ежечасно! Архивные данные за месяц целиком и за предыдущие месяцы Вы можете получить, выбрав интересующий диапазон дат из раскрывающегося списка и нажав кнопку "Ввод!".
Внимание! Архив погоды МЕТАР в базе сайта по станциям, не включенным в климатический монитор, хранится не более 60 дней. Нет смысла пытаться выбрать более раннюю дату.
*Определитесь, кто Вы:
Внимание! Время в таблицах - местное (без учета летнего времени). Для получения всемирного времени необходимо вычесть поправку, которая равна -8 ч.
Смотрите также архив погоды в соседних городах и на ближайших метеорологических станциях:
Партнеры нашего сайта:      
Пояснения к столбцам:
  • Ветер - указаны скорость ветра в м/с - средняя за 10 мин, порывы в срок и между сроками (в фигурных скобках) и направление, откуда дует ветер: С - северный,
  • СВ - северо-восточный, В - восточный, ЮВ - юго-восточный, Ю - южный, ЮЗ - юго-западный, З - западный, СЗ - северо-западный.
  • Видимость - горизонтальная дальность видимости в метрах или километрах. При видимости от 1 до 10 км при отсутствии осадков обычно наблюдается дымка, при ухудшении видимости до 1 км и менее - туман. В сухую погоду видимость может ухудшаться дымом, пылью или мглою.
  • Явления - указаны атмосферные явления, наблюдавшиеся в срок или в последний час перед сроком; фигурными скобками обозначены явления, наблюдавшиеся между сроками (за 1-3 часа до срока); квадратными скобками обозначены град или гололедные отложения с указанием их диаметра в мм.
  • Облачность - указаны через наклонную черту общая и нижняя облачность в баллах и высота нижней границы облаков в метрах; квадратными скобками обозначены формы облаков: Ci - перистые, Cs - перисто-слоистые, Cc - перисто-кучевые, Ac - высококучевые, As - высокослоистые, Sc - слоисто-кучевые, Ns - слоисто-дождевые, Cu - кучевые, Cb - кучево-дождевые. Подробнее классификацию облаков см. в Атласе облаков (PDF).
  • T - Температура воздуха - температура, измеренная на высоте 2 м над землей.
  • Td - Температура точки росы - температура, при понижении до которой содержащийся в воздухе водяной пар достигнет насыщения.
  • f - Относительная влажность воздуха - влажноcть воздуха, измеренная на высоте 2 м над землей.
  • Te - Эффективная температура - температура, которую ощущает одетый по сезону человек в тени. Характеристика душности погоды. При расчете учитывается влияние влажности воздуха и скорости ветра на теплоощущения человека.
  • Tes - Эффективная температура на солнце - температура, которую ощущает человек, с поправкой на солнечный нагрев. Характеристика знойности погоды. Зависит от высоты солнца над горизонтом, облачности и скорости ветра. Ночью, в пасмурную погоду, а также при ветре 12 м/с и более поправка равна нулю.
  • P - Атмосферное давление - приведенное к уровню моря атмосферное давление.
  • Po - Атмосферное давление - измеренное на уровне метеостанции атмосферное давление.
  • Tmin - Минимальная температура - минимум температуры воздуха на высоте 2 м над землей.
  • Tmax - Максимальная температура - максимум температуры воздуха на высоте 2 м над землей.
  • R - Количество осадков - Количество выпавших осадков за период времени, мм. При наведении курсора мыши на число - период времени, за который выпало указанное количество осадков.
  • R24 - Количество осадков - Количество выпавших осадков за 24 часа, мм.
  • S - Снежный покров - Высота снежного покрова, см. При наведении курсора мыши на число - состояние снежного покрова и степень покрытия местности в баллах.